Flag for India Weather past 2 weeks in Gandhinagar, Gujarat, India

Now
81 °F

Fog.


Feels Like: 89 °F
Forecast: 76 / 91 °F
Wind: 5 mph from Northwest

Location: Ahmadabad Airport

Current Time: Sep 16, 2014 at 8:52:43 AM

Latest Report: Sep 16, 2014 at 8:10 AM


Visibility: 1 mi

Pressure: 29.74 "Hg

Humidity: 100%

Dew point: 81 °F

Location of GandhinagarLocation

Historic Weather in Gandhinagar — Graph

°F

Gandhinagar temperature yesterday

Maximum temperature yesterday: 90 °F (at 12:40 PM)
Minimum temperature yesterday: 77 °F (at 5:10 AM)
Average temperature yesterday: 83 °F

Past Weeks' High & Low Weather Summary

 TemperatureHumidityPressure
High93 °F (Sep 6, 3:10 PM)100% (Sep 1, 7:40 AM)29.83 "Hg (Sep 1, 7:40 AM)
Low75 °F (Sep 8, 9:10 PM)56% (Sep 6, 3:10 PM)29.42 "Hg (Sep 1, 3:40 PM)
Average82 °F91%29.66 "Hg
* Reported Sep 1 7:40 AM — Sep 16 7:40 AM, Gandhinagar, Weather by CustomWeather, © 2014

Note: Actual official high and low records may vary slightly from our data, if they occured in-between our weather recording intervals... More about our weather records

Advertising

Gandhinagar weather history for previous 24 hours

 ConditionsComfort  
Time TempWeatherWind HumidityBarometerVisibility
7:40 AM
Sep 16
81 °FFog.5 mph100%29.74 "Hg1 mi
7:10 AM79 °FFog.3 mph100%29.74 "Hg1 mi
5:40 AM79 °FFog.No wind100%29.71 "Hg2 mi
5:10 AM79 °FFog.No wind100%29.71 "Hg2 mi
4:40 AM79 °FFog.3 mph100%29.71 "Hg2 mi
4:10 AM79 °FFog.3 mph100%29.71 "Hg2 mi
3:40 AM79 °FFog.3 mph100%29.71 "Hg2 mi
3:10 AM79 °FFog.3 mph100%29.71 "Hg2 mi
2:10 AM81 °FFog.5 mph94%29.71 "Hg2 mi
1:40 AM81 °FFog.5 mph100%29.71 "Hg2 mi
1:10 AM81 °FFog.6 mph100%29.71 "Hg2 mi
12:40 AM82 °FFog.6 mph94%29.74 "Hg2 mi
12:10 AM82 °FFog.No wind94%29.74 "Hg2 mi
11:10 PM
Sep 15
82 °FFog.No wind94%29.74 "Hg2 mi
10:40 PM82 °FFog.No wind94%29.74 "Hg2 mi
10:10 PM82 °FFog.No wind94%29.74 "Hg2 mi
9:40 PM82 °FFog.No wind94%29.74 "Hg2 mi
8:40 PM82 °FFog.No wind94%29.74 "Hg2 mi
7:40 PM82 °FFog.3 mph94%29.71 "Hg2 mi
7:10 PM84 °FScattered clouds.3 mph89%29.71 "Hg2 mi
3:10 PM84 °FFog.3 mph89%29.71 "Hg2 mi
2:40 PM84 °FFog.3 mph100%29.74 "Hg2 mi
1:10 PM88 °FBroken clouds.5 mph75%29.74 "Hg2 mi
12:40 PM90 °FScattered clouds.5 mph71%29.77 "Hg2 mi
11:10 AM88 °FScattered clouds.3 mph75%29.77 "Hg2 mi
10:40 AM88 °FScattered clouds.5 mph75%29.80 "Hg2 mi
10:10 AM86 °FScattered clouds.5 mph75%29.77 "Hg2 mi
9:40 AM84 °FScattered clouds.3 mph79%29.80 "Hg2 mi
9:10 AM82 °FFog.3 mph84%29.77 "Hg2 mi
8:40 AM82 °FFog.3 mph84%29.77 "Hg2 mi
8:10 AM81 °FFog.5 mph89%29.77 "Hg2 mi
Weather by CustomWeather, © 2014

See weather overviewHow to use our weather pages